[Iaude] MPEC D72: 2024 DU [a=2.11,e=0.74,i=16.2,H=21.2]

mpec at cfa.harvard.edu mpec at cfa.harvard.edu
Mon Feb 19 10:39:33 EST 2024


M.P.E.C. 2024-D72                             Issued 2024 February 19, 15:37 UT

     The Minor Planet Electronic Circulars contain information on unusual
         minor planets, routine data on comets and natural satellites,
         and occasional editorial announcements.  They are published
    on behalf of Division F of the International Astronomical Union by the
          Minor Planet Center, Smithsonian Astrophysical Observatory,
                          Cambridge, MA 02138, U.S.A.
			  
             Prepared using the Tamkin Foundation Computer Network

                              MPC at CFA.HARVARD.EDU
            URL https://www.minorplanetcenter.net/    ISSN 1523-6714

                                    2024 DU                                     


Observations:
     K24D00U*1C2024 02 17.41101514 20 24.356+41 30 33.73         21.53GVED072G96
     K24D00U 1C2024 02 17.41623714 20 21.829+41 30 37.04         21.03GVED072G96
     K24D00U 1C2024 02 17.42146814 20 19.342+41 30 40.32         20.93GVED072G96
     K24D00U 1C2024 02 17.42668914 20 16.775+41 30 43.06         21.28GVED072G96
     K24D00U  C2024 02 17.45189914 20 04.457+41 30 57.78         20.8 GVED072H01
     K24D00U  C2024 02 17.45564914 20 02.654+41 31 00.02         21.1 GVED072H01
     K24D00U  C2024 02 17.46734214 19 56.979+41 31 06.65         21.1 GVED072H01
     K24D00U  C2024 02 17.47446414 19 53.525+41 31 10.69         20.8 GVED072H01
     K24D00U KC2024 02 17.50371314 19 39.479+41 31 26.62         20.40GVED072I52
     K24D00U KC2024 02 17.50765914 19 37.564+41 31 29.57         20.73GVED072I52
     K24D00U KC2024 02 17.51160914 19 35.648+41 31 31.87         21.05GVED072I52
     K24D00U KC2024 02 17.51555714 19 33.733+41 31 33.89         21.19GVED072I52
     K24D00U KC2024 02 18.34338114 13 04.49 +41 38 15.1          20.9 GVED072H21
     K24D00U KC2024 02 18.34757414 13 02.48 +41 38 16.9          21.4 GVED072H21
     K24D00U KC2024 02 18.35176814 13 00.50 +41 38 19.3          21.5 GVED072H21
     K24D00U KC2024 02 18.35661314 12 58.16 +41 38 21.5          20.9 GVED072H21
     K24D00U KC2024 02 18.43564214 12 20.995+41 38 57.16         20.69GVED072I52
     K24D00U KC2024 02 18.43951414 12 19.123+41 38 58.85         20.98GVED072I52
     K24D00U KC2024 02 18.44337614 12 17.280+41 39 00.86         20.71GVED072I52
     K24D00U KC2024 02 18.44723614 12 15.437+41 39 01.98         20.60GVED072I52
     K24D00U KC2024 02 19.38305314 04 58.49 +41 44 26.3          20.9 GVED072H21
     K24D00U KC2024 02 19.38594114 04 57.11 +41 44 27.1          20.9 GVED072H21
     K24D00U KC2024 02 19.38883014 04 55.73 +41 44 27.8          20.8 GVED072H21
     K24D00U KC2024 02 19.39171914 04 54.37 +41 44 28.5          20.9 GVED072H21

Observer details:
G96 Mt. Lemmon Survey.  Observers T. Beuden, J. K. Hogan.  Measurers T.
    Beuden, V. F. Carvajal, D. Fay, J. B. Fazekas, D. C. Fuls, A. R. Gibbs, A.
    D. Grauer, H. Groeller, J. K. Hogan, R. A. Kowalski, S. M. Larson, G. J.
    Leonard, D. Rankin, R. L. Seaman, F. C. Shelly, K. W. Wierzchos.  1.5-m
    reflector + 10K CCD.
H01 Magdalena Ridge Observatory, Socorro.  Observers W. H. Ryan, E. V. Ryan.
    Measurer W. H. Ryan.  2.4-m f/8.9 Ritchey-Chretien + CCD.
H21 Astronomical Research Observatory, Westfield.  Observer R. Holmes.
    Measurers T. Linder, R. Holmes, L. Horn.  0.76-m f/3.0 astrograph + CCD,
    1.3-m f/4.0 astrograph + CCD.
I52 Steward Observatory, Mt. Lemmon Station.  Observer J. B. Fazekas.
    Measurers E. C. Beshore, D. Fay, J. B. Fazekas, D. C. Fuls, A. R. Gibbs,
    A. D. Grauer, H. Groeller, J. K. Hogan, R. A. Kowalski, S. M. Larson, G.
    J. Leonard, D. Rankin, R. L. Seaman, F. C. Shelly, K. W. Wierzchos.  1.0-m
    prime focus + CCD.

Orbital elements:
2024 DU                                                  Earth MOID = 0.2653 AU
Epoch 2024 Mar. 31.0 TT = JDT 2460400.5                 Veres                   
M  33.56555              (2000.0)            P               Q                  
n   0.32131420     Peri.   13.89623     +0.66840106     -0.72682541             
a   2.1111355      Node    34.57380     +0.65306127     +0.47178793             
e   0.7417283      Incl.   16.16682     +0.35602108     +0.49914023             
P   3.07           H   21.21          G   0.15           U   9                  
Residuals in seconds of arc
240217 G96  0.0   0.1-    240217 I52  0.0   0.9-    240218 I52  0.3+  0.1-
240217 G96  0.0   0.0     240217 I52  0.0   0.1-    240218 I52  0.1+  0.2-
240217 G96  0.4+  0.1+    240217 I52  0.0   0.1+    240218 I52  0.2+  0.2+
240217 G96  0.0   0.3-    240217 I52  0.1-  0.0     240218 I52  0.3+  0.4-
240217 H01  0.1-  0.0     240218 H21  0.1-  0.6+    240219 H21  0.1+  0.1+
240217 H01  0.1+  0.1+    240218 H21  0.2-  0.4+    240219 H21  0.0   0.0
240217 H01  0.0   0.0     240218 H21 (0.2+  0.9+)   240219 H21  0.1-  0.1-
240217 H01  0.1-  0.1+    240218 H21 (0.1-  0.9+)   240219 H21  0.0   0.3-

Ephemeris:
2024 DU                  a,e,i = 2.11, 0.74, 16                  q = 0.5452
Date    TT    R. A. (2000) Decl.     Delta      r    Elong.  Phase     V
2024 01 20    17 50 38.1 +22 08 05   0.3247  0.8335    53.6   108.1    22.4
...
2024 02 04    16 06 08.2 +35 48 56   0.3285  1.0291    88.2    73.2    21.4
...
2024 02 12    15 03 35.8 +40 03 50   0.3489  1.1324   105.7    57.0    21.3
...
2024 02 18    14 15 45.6 +41 35 39   0.3733  1.2084   117.8    46.3    21.2
2024 02 19    14 07 56.8 +41 42 27   0.3783  1.2209   119.7    44.7    21.2
2024 02 20    14 00 13.2 +41 46 54   0.3835  1.2334   121.6    43.1    21.3
...
2024 02 26    13 16 30.0 +41 28 25   0.4200  1.3072   131.7    34.5    21.3
...
2024 03 05    12 28 00.3 +39 31 00   0.4837  1.4030   141.5    26.1    21.6
...
2024 03 20    11 30 02.6 +33 49 44   0.6483  1.5744   145.7    20.9    22.3

M. P. C. Staff               (C) Copyright 2024 MPC           M.P.E.C. 2024-D72





More information about the Iaude mailing list